Hourly Data Report for August 17, 2013

All times are specified in Local Standard Time (LST). Add 1 hour to adjust for Daylight Saving Time where and when it is observed.

VICTORIA INTL A
BRITISH COLUMBIA

48°38'50.000" N
123°25'33.000" W
19.50 m
1018621
71799
YYJ

Download Data

Hourly Data (August 2013)
Hourly Data Report for August 17, 2013
Temp Definition
°C
Dew Point Temp Definition
°C
Rel Hum Definition
%
Wind Dir Definition
10's deg

Wind Spd Definition
km/h
Visibility Definition
km
Stn Press Definition
kPa
Hmdx Definition


Wind Chill Definition


Weather Definition


TIME
00:00 Legend Double Dagger 15.9 13.1 83 12 1 48.3 101.32     LegendNANA
01:00 Legend Double Dagger 14.9 12.4 85 9 1 48.3 101.32     Mostly Cloudy
02:00 Legend Double Dagger 15.0 12.4 84 3 2 48.3 101.33     LegendNANA
03:00 Legend Double Dagger 15.1 12.6 85 14 5 48.3 101.33     LegendNANA
04:00 Legend Double Dagger 13.3 11.7 90 10 5 48.3 101.32     Mostly Cloudy
05:00 Legend Double Dagger 13.0 11.6 91 10 11 48.3 101.35     LegendNANA
06:00 Legend Double Dagger 13.9 12.3 90 13 18 48.3 101.38     LegendNANA
07:00 Legend Double Dagger 14.6 12.7 88 13 6 48.3 101.44     Mostly Cloudy
08:00 Legend Double Dagger 14.8 12.5 86 12 9 48.3 101.46     LegendNANA
09:00 Legend Double Dagger 15.4 12.6 83 12 13 48.3 101.49     LegendNANA
10:00 Legend Double Dagger 16.8 13.2 79 12 18 48.3 101.50     Mostly Cloudy
11:00 Legend Double Dagger 16.5 13.1 80 13 20 48.3 101.52     LegendNANA
12:00 Legend Double Dagger 18.1 13.7 75 13 17 48.3 101.53     LegendNANA
13:00 Legend Double Dagger 21.3 14.1 63 12 22 48.3 101.50 25   Mostly Cloudy
14:00 Legend Double Dagger 21.7 13.5 59 13 20 48.3 101.50 25   LegendNANA
15:00 Legend Double Dagger 25.5 14.2 49 18 24 48.3 101.47 29   LegendNANA
16:00 Legend Double Dagger 24.3 14.0 52 16 28 48.3 101.46 28   Mainly Clear
17:00 Legend Double Dagger 24.4 12.9 48 21 18 48.3 101.45 27   LegendNANA
18:00 Legend Double Dagger 22.2 12.9 55 23 15 48.3 101.46 25   LegendNANA
19:00 Legend Double Dagger 20.4 12.7 61 23 10 48.3 101.48     Mainly Clear
20:00 Legend Double Dagger 18.1 10.6 61 23 15 32.2 101.50     LegendNANA
21:00 Legend Double Dagger 19.1 11.3 60 26 18 32.2 101.53     LegendNANA
22:00 Legend Double Dagger 17.5 11.2 66 30 17 32.2 101.55     Mainly Clear
23:00 Legend Double Dagger 17.5 11.4 67 26 16 32.2 101.58     LegendNANA

Notes on Data Quality.

Legend

  • E = Estimated
  • M = Missing
  • NA = Not Available
  • ‡ = Partner data that is not subject to review by the National Climate Archives
Date modified: